timestamp,wind_dir_avg,wind_spd_max_dir,wind_spd_avg,wind_spd_gust,battery_voltage,lat,long
2018-10-17 00:00:00+00:00,246.0,248.0,20.4,26.03,,47.59359,-54.27349
2018-10-17 00:10:00+00:00,256.0,253.0,16.97,23.0,,47.59359,-54.27349
2018-10-17 00:20:00+00:00,248.0,253.0,18.56,23.69,,47.59359,-54.27349
2018-10-17 00:30:00+00:00,260.0,252.0,19.4,23.94,,47.59359,-54.27349
2018-10-17 00:40:00+00:00,261.0,256.0,18.26,21.97,,47.59359,-54.27349
2018-10-17 00:50:00+00:00,251.0,254.0,18.18,23.58,,47.59359,-54.27349
2018-10-17 01:00:00+00:00,253.0,257.0,20.1,24.78,,47.59359,-54.27349
2018-10-17 01:10:00+00:00,266.0,255.0,16.28,19.09,,47.59359,-54.27349
2018-10-17 01:20:00+00:00,264.0,266.0,17.54,21.3,,47.59359,-54.27349
2018-10-17 01:30:00+00:00,264.0,267.0,19.7,23.57,,47.59359,-54.27349
2018-10-17 01:40:00+00:00,265.0,261.0,19.74,24.43,,47.59359,-54.27349
2018-10-17 01:50:00+00:00,266.0,261.0,17.0,20.15,,47.59359,-54.27349
2018-10-17 02:00:00+00:00,267.0,264.0,19.05,22.14,,47.59359,-54.27349
2018-10-17 02:10:00+00:00,268.0,265.0,20.43,25.93,,47.59359,-54.27349
2018-10-17 02:20:00+00:00,276.0,281.0,18.47,24.84,,47.59359,-54.27349
2018-10-17 02:30:00+00:00,277.0,281.0,18.37,21.81,,47.59359,-54.27349
2018-10-17 02:40:00+00:00,274.0,282.0,18.58,23.44,,47.59359,-54.27349
2018-10-17 02:50:00+00:00,265.0,267.0,16.49,19.09,,47.59359,-54.27349
2018-10-17 03:00:00+00:00,269.0,271.0,15.44,19.94,,47.59359,-54.27349
2018-10-17 03:10:00+00:00,278.0,283.0,18.83,22.96,,47.59359,-54.27349
2018-10-17 03:20:00+00:00,276.0,273.0,16.77,19.43,,47.59359,-54.27349
2018-10-17 03:30:00+00:00,273.0,270.0,16.35,18.44,,47.59359,-54.27349
2018-10-17 03:40:00+00:00,271.0,267.0,15.15,17.92,,47.59359,-54.27349
2018-10-17 03:50:00+00:00,270.0,275.0,16.35,19.54,,47.59359,-54.27349
2018-10-17 04:00:00+00:00,269.0,263.0,16.69,19.42,,47.59359,-54.27349
2018-10-17 04:10:00+00:00,278.0,278.0,16.48,19.04,,47.59359,-54.27349
2018-10-17 04:20:00+00:00,271.0,270.0,14.86,17.65,,47.59359,-54.27349
2018-10-17 04:30:00+00:00,265.0,271.0,14.58,16.34,,47.59359,-54.27349
2018-10-17 04:40:00+00:00,267.0,271.0,15.2,19.21,,47.59359,-54.27349
2018-10-17 04:50:00+00:00,267.0,263.0,12.85,16.14,,47.59359,-54.27349
2018-10-17 05:00:00+00:00,276.0,285.0,14.91,19.67,,47.59359,-54.27349
2018-10-17 05:10:00+00:00,274.0,282.0,14.82,16.95,,47.59359,-54.27349
2018-10-17 05:20:00+00:00,275.0,278.0,13.53,15.85,,47.59359,-54.27349
2018-10-17 05:30:00+00:00,269.0,269.0,15.12,19.23,,47.59359,-54.27349
2018-10-17 05:40:00+00:00,271.0,278.0,14.21,15.86,,47.59359,-54.27349
2018-10-17 05:50:00+00:00,274.0,273.0,16.05,17.92,,47.59359,-54.27349
2018-10-17 06:00:00+00:00,279.0,284.0,13.71,15.63,,47.59359,-54.27349
2018-10-17 06:10:00+00:00,274.0,270.0,14.81,17.15,,47.59359,-54.27349
2018-10-17 06:20:00+00:00,273.0,276.0,13.27,15.69,,47.59359,-54.27349
2018-10-17 06:30:00+00:00,270.0,276.0,13.35,14.87,,47.59359,-54.27349
2018-10-17 06:40:00+00:00,271.0,273.0,12.86,14.91,,47.59359,-54.27349
2018-10-17 06:50:00+00:00,268.0,269.0,12.52,15.03,,47.59359,-54.27349
2018-10-17 07:00:00+00:00,275.0,278.0,12.86,16.76,,47.59359,-54.27349
2018-10-17 07:10:00+00:00,273.0,275.0,12.81,15.57,,47.59359,-54.27349
2018-10-17 07:20:00+00:00,268.0,269.0,11.76,13.98,,47.59359,-54.27349
2018-10-17 07:30:00+00:00,272.0,275.0,11.69,14.37,,47.59359,-54.27349
2018-10-17 07:40:00+00:00,268.0,268.0,12.71,14.1,,47.59359,-54.27349
2018-10-17 07:50:00+00:00,274.0,276.0,12.3,14.42,,47.59359,-54.27349
2018-10-17 08:00:00+00:00,260.0,266.0,10.91,12.7,,47.59359,-54.27349
2018-10-17 08:10:00+00:00,270.0,276.0,10.91,13.12,,47.59359,-54.27349
2018-10-17 08:20:00+00:00,270.0,277.0,12.51,14.39,,47.59359,-54.27349
2018-10-17 08:30:00+00:00,272.0,276.0,12.4,14.73,,47.59359,-54.27349
2018-10-17 08:40:00+00:00,262.0,262.0,9.4,10.48,,47.59359,-54.27349
2018-10-17 08:50:00+00:00,270.0,268.0,11.37,12.77,,47.59359,-54.27349
2018-10-17 09:00:00+00:00,259.0,262.0,9.51,10.89,,47.59359,-54.27349
2018-10-17 09:10:00+00:00,260.0,266.0,10.51,11.98,,47.59359,-54.27349
2018-10-17 09:20:00+00:00,262.0,271.0,10.05,11.65,,47.59359,-54.27349
2018-10-17 09:30:00+00:00,272.0,277.0,10.38,12.58,,47.59359,-54.27349
2018-10-17 09:40:00+00:00,282.0,286.0,8.87,10.14,,47.59359,-54.27349
2018-10-17 09:50:00+00:00,270.0,270.0,9.38,10.81,,47.59359,-54.27349
2018-10-17 10:00:00+00:00,289.0,290.0,10.58,12.6,,47.59359,-54.27349
2018-10-17 10:10:00+00:00,282.0,292.0,7.7,9.47,,47.59359,-54.27349
2018-10-17 10:20:00+00:00,279.0,279.0,6.67,7.56,,47.59359,-54.27349
2018-10-17 10:30:00+00:00,278.0,273.0,10.68,12.07,,47.59359,-54.27349
2018-10-17 10:40:00+00:00,279.0,277.0,11.06,12.91,,47.59359,-54.27349
2018-10-17 10:50:00+00:00,278.0,284.0,8.37,9.61,,47.59359,-54.27349
2018-10-17 11:00:00+00:00,285.0,287.0,9.7,11.15,,47.59359,-54.27349
2018-10-17 11:10:00+00:00,277.0,278.0,9.33,11.07,,47.59359,-54.27349
2018-10-17 11:20:00+00:00,271.0,276.0,6.7,7.85,,47.59359,-54.27349
2018-10-17 11:30:00+00:00,276.0,282.0,9.94,12.17,,47.59359,-54.27349
2018-10-17 11:40:00+00:00,307.0,308.0,8.99,10.95,,47.59359,-54.27349
2018-10-17 11:50:00+00:00,280.0,286.0,12.09,13.57,,47.59359,-54.27349
2018-10-17 12:00:00+00:00,277.0,276.0,8.35,9.42,,47.59359,-54.27349
2018-10-17 12:10:00+00:00,269.0,272.0,9.33,11.21,,47.59359,-54.27349
2018-10-17 12:20:00+00:00,277.0,274.0,7.94,8.86,,47.59359,-54.27349
2018-10-17 12:30:00+00:00,276.0,285.0,9.08,11.08,,47.59359,-54.27349
2018-10-17 12:40:00+00:00,276.0,278.0,7.43,9.71,,47.59359,-54.27349
2018-10-17 12:50:00+00:00,283.0,286.0,9.85,11.54,,47.59359,-54.27349
2018-10-17 13:00:00+00:00,275.0,275.0,11.35,12.83,,47.59359,-54.27349
2018-10-17 13:10:00+00:00,273.0,278.0,11.49,12.84,,47.59359,-54.27349
2018-10-17 13:20:00+00:00,273.0,277.0,10.1,12.13,,47.59359,-54.27349
2018-10-17 13:30:00+00:00,279.0,283.0,8.97,10.03,,47.59359,-54.27349
2018-10-17 13:40:00+00:00,278.0,277.0,10.19,11.54,,47.59359,-54.27349
2018-10-17 13:50:00+00:00,281.0,284.0,12.81,14.62,,47.59359,-54.27349
2018-10-17 14:00:00+00:00,286.0,290.0,11.76,13.3,,47.59359,-54.27349
2018-10-17 14:10:00+00:00,287.0,293.0,11.51,13.04,,47.59359,-54.27349
2018-10-17 14:20:00+00:00,278.0,283.0,9.25,10.55,,47.59359,-54.27349
2018-10-17 14:30:00+00:00,271.0,281.0,8.35,10.6,,47.59359,-54.27349
2018-10-17 14:40:00+00:00,275.0,286.0,10.31,12.09,,47.59359,-54.27349
2018-10-17 14:50:00+00:00,285.0,283.0,10.06,11.25,,47.59359,-54.27349
2018-10-17 15:00:00+00:00,278.0,269.0,9.63,11.83,,47.59359,-54.27349
2018-10-17 15:10:00+00:00,289.0,289.0,10.68,11.66,,47.59359,-54.27349
2018-10-17 15:20:00+00:00,288.0,297.0,9.36,10.3,,47.59359,-54.27349
2018-10-17 15:30:00+00:00,270.0,273.0,11.26,12.44,,47.59359,-54.27349
2018-10-17 15:40:00+00:00,280.0,280.0,8.94,10.12,,47.59359,-54.27349
2018-10-17 15:50:00+00:00,276.0,283.0,9.72,11.47,,47.59359,-54.27349
2018-10-17 16:00:00+00:00,281.0,282.0,9.24,10.82,,47.59359,-54.27349
2018-10-17 16:10:00+00:00,274.0,271.0,10.48,11.95,,47.59359,-54.27349
2018-10-17 16:20:00+00:00,274.0,273.0,10.34,11.6,,47.59359,-54.27349
2018-10-17 16:30:00+00:00,275.0,275.0,9.17,10.08,,47.59359,-54.27349
2018-10-17 16:40:00+00:00,267.0,266.0,10.46,11.91,,47.59359,-54.27349
2018-10-17 16:50:00+00:00,276.0,283.0,10.71,12.51,,47.59359,-54.27349
2018-10-17 17:00:00+00:00,268.0,267.0,12.9,14.41,,47.59359,-54.27349
2018-10-17 17:10:00+00:00,261.0,257.0,11.76,14.06,,47.59359,-54.27349
2018-10-17 17:20:00+00:00,260.0,264.0,11.44,13.19,,47.59359,-54.27349
2018-10-17 17:30:00+00:00,269.0,271.0,11.23,12.66,,47.59359,-54.27349
2018-10-17 17:40:00+00:00,274.0,266.0,10.99,12.47,,47.59359,-54.27349
2018-10-17 17:50:00+00:00,277.0,275.0,11.47,13.24,,47.59359,-54.27349
2018-10-17 18:00:00+00:00,271.0,273.0,11.44,12.7,,47.59359,-54.27349
2018-10-17 18:10:00+00:00,274.0,272.0,10.83,12.93,,47.59359,-54.27349
2018-10-17 18:20:00+00:00,279.0,286.0,9.41,10.94,,47.59359,-54.27349
2018-10-17 18:30:00+00:00,274.0,278.0,10.19,11.37,,47.59359,-54.27349
2018-10-17 18:40:00+00:00,276.0,279.0,10.5,11.92,,47.59359,-54.27349
2018-10-17 18:50:00+00:00,266.0,270.0,11.8,13.48,,47.59359,-54.27349
2018-10-17 19:00:00+00:00,268.0,274.0,11.23,14.31,,47.59359,-54.27349
2018-10-17 19:10:00+00:00,268.0,271.0,12.59,13.88,,47.59359,-54.27349
2018-10-17 19:20:00+00:00,269.0,263.0,10.33,11.92,,47.59359,-54.27349
2018-10-17 19:30:00+00:00,275.0,276.0,10.01,11.37,,47.59359,-54.27349
2018-10-17 19:40:00+00:00,275.0,278.0,10.69,12.33,,47.59359,-54.27349
2018-10-17 19:50:00+00:00,275.0,271.0,10.74,12.62,,47.59359,-54.27349
2018-10-17 20:00:00+00:00,277.0,281.0,9.35,10.87,,47.59359,-54.27349
2018-10-17 20:10:00+00:00,276.0,275.0,10.27,11.68,,47.59359,-54.27349
2018-10-17 20:20:00+00:00,272.0,279.0,8.94,10.7,,47.59359,-54.27349
2018-10-17 20:30:00+00:00,268.0,273.0,8.97,10.8,,47.59359,-54.27349
2018-10-17 20:40:00+00:00,277.0,282.0,10.48,11.58,,47.59359,-54.27349
2018-10-17 20:50:00+00:00,264.0,261.0,8.92,10.12,,47.59359,-54.27349
2018-10-17 21:00:00+00:00,262.0,263.0,8.76,10.52,,47.59359,-54.27349
2018-10-17 21:10:00+00:00,271.0,276.0,9.4,10.24,,47.59359,-54.27349
2018-10-17 21:20:00+00:00,261.0,264.0,8.76,9.65,,47.59359,-54.27349
2018-10-17 21:30:00+00:00,265.0,266.0,7.82,8.74,,47.59359,-54.27349
2018-10-17 21:40:00+00:00,258.0,255.0,7.76,9.32,,47.59359,-54.27349
2018-10-17 21:50:00+00:00,257.0,265.0,7.74,8.62,,47.59359,-54.27349
2018-10-17 22:00:00+00:00,261.0,256.0,8.0,8.98,,47.59359,-54.27349
2018-10-17 22:10:00+00:00,260.0,262.0,9.61,10.35,,47.59359,-54.27349
2018-10-17 22:20:00+00:00,269.0,272.0,9.56,10.71,,47.59359,-54.27349
2018-10-17 22:30:00+00:00,258.0,256.0,9.53,10.27,,47.59359,-54.27349
2018-10-17 22:40:00+00:00,261.0,259.0,8.75,10.14,,47.59359,-54.27349
2018-10-17 22:50:00+00:00,260.0,264.0,9.21,10.21,,47.59359,-54.27349
2018-10-17 23:00:00+00:00,265.0,267.0,8.43,9.43,,47.59359,-54.27349
2018-10-17 23:10:00+00:00,264.0,263.0,8.88,9.75,,47.59359,-54.27349
2018-10-17 23:20:00+00:00,266.0,269.0,8.35,8.87,,47.59359,-54.27349
2018-10-17 23:30:00+00:00,262.0,265.0,8.11,9.35,,47.59359,-54.27349
2018-10-17 23:40:00+00:00,257.0,256.0,7.98,9.06,,47.59359,-54.27349
2018-10-17 23:50:00+00:00,260.0,256.0,8.31,9.0,,47.59359,-54.27349
